Location: Dunn (historical)
(35.2693°N, 90.5721°W)
Time: 12:25:25
(UTC+00:00)

IGS 5A - Pass Details

Date: 13 February 2026
Orbit: 551 x 554 km, 97.4° (Epoch: 8 January)

Event Time Altitude Azimuth Distance (km) Brightness Sun altitude
Rises 12:14:38 0° 1° (N) 2,733 6.8 -8.0°
Reaches altitude 10° 12:16:53 10° 353° (N) 1,835 5.8 -7.5°
Maximum altitude 12:20:30 35° 287° (WNW) 899 3.9 -6.8°
Drops below altitude 10° 12:24:07 10° 220° (SW) 1,823 5.7 -6.1°
Sets 12:26:21 0° 212° (SSW) 2,713 6.7 -5.6°
